STARLINK-3073, 49135

Orbit data source: Space-Track

STARLINK-3073, 49135 is a payload satellite owned by SpaceX/Seattle (US) in LEO that was launched on Tue, 14 Sep 2021 UTC via an FALCON 9 launch vehicle from the Air Force Western Test Range (AFWTR). Payload-class satellites include a variety of spacecraft equipped with specific instruments for various scientific and technological missions. These include communications satellites like Starlink; space stations such as the ISS; scientific satellites like the Hubble; Earth observation satellites from companies like Planet Labs, Umbra, and HawkEye 360; GPS; miniature CubeSats for education and research; and military/defense satellites.

Loading next visibility...
Identifier
49135, 2021-082F
Orbit
LEO
Country
Flag of USUS
Related business
Manufacturer
SpaceX/Seattle
Mission
Operational Commercial Communications
Bus & Motor
STARLINK, Unknown motor
Mass
297 kg wet, ~275 kg dry
Launch date (UTC)
2021-09-14 (4 years ago)
Launch vehicle
FALCON 9
Launch site
Air Force Western Test Range (AFWTR)
Object type
Payload
Rocket body
Debris
Shape & HBR
Box + 1 Pan, 10.1 m
Radar Cross Section
13.562 m², Large (>1 m²)

Expand to show TLE details & history
Last TLE update: 5 hours ago

TLE from 5 hours ago
0 STARLINK-3073
1 49135U 21082F   26035.84255725 -.00000213  00000-0 -10036-4 0  9991
2 49135  70.0010 337.2567 0001891 278.4460  81.6485 14.98332148242053
Epoch: 2026-02-04T20:13Z
TLE epoch observation values (Epoch: 2026-02-04T20:13:16.946Z)
Latitude
0.00001°
Longitude
-101.06724°
Altitude
574.283 km
Speed
7.574 km/s
True Right ascension
22h 29m 01s
True Declination
0° 00' 00"
Sunlit
Object was in daylight at epoch
Visualization orbit readout
Latitude
Unknown
Longitude
Unknown
Altitude
Unknown
Speed
Unknown
Apparent Right ascension
Unknown
Apparent Declination
Unknown
Sunlit
N/A
Visualization observer readout
Local Sidereal Time
03:09:14
Azimuth
Unknown
Elevation
Unknown
Doppler factor
Unknown
Orbital elements
Apogee altitude
571.311 km
Perigee altitude
568.683 km
Semi-major axis
6,948.134 km
Eccentricity
0.00019
Inclination
70.001°
RAAN
337.2567°
Arg. of periapsis
278.446°
True anomaly
81.66994°
Mean anomaly
81.6485°
Eccentric anomaly
81.65922°
Mean motion
3.74749 °/min
Orbital period
96.06 mins
BSTAR
-0.000010036
Loading maneuver chart data...
Computing Atmospheric mass density...
Loading historical data...
Loading historical data...
Loading historical data...
Loading historical data...
Loading historical data...
Loading historical data...
Loading historical data...

Documentation

Showing up to 5 results
|